Retour au catalogue

STARLINK-5374

ActifCommunicationsVLEO
NORAD 56144·PAYLOAD·🇺🇸 United States

Lancé Mar 29, 2023 depuis Cape Canaveral Space Force Station

Loading…

Prochains Passages (prochaines 24 heures)

TLE

FraisSource: CelesTrak SupGP

Époque: Sep 14, 2026, 21:14 UTC

1 56144C 23046BD  26257.88520833 -.00027996  00000+0 -10141-2 0  2574
2 56144  43.0007 158.3807 0001550 262.1243 205.1353 15.27587787    16

Suivez STARLINK-5374 en temps réel avec AllMySat

Download on the App Store